Location: *
(50.6089°N, 2.2719°E)
Time: 17:20:46
(UTC+00:00)

SJ-6B - Pass Details

Date: 18 October 2019
Orbit: 510 x 582 km, 97.6° (Epoch: 14 November)

Event Time Altitude Azimuth Distance (km) Brightness Sun altitude
Exits shadow 19:03:42 34° 21° (NNE) 881 3.7 -21.3°
Drops below altitude 10° 19:06:07 10° 357° (N) 1,759 5.5 -21.7°
Sets 19:08:15 0° 351° (N) 2,645 6.6 -22.0°
